This is the latest recevied weather packets stored in our database for station/object KG7KID-7. If no packets are shown the sender has not sent any weather packets the latest 10 day(s).
| Time | Temp. | Humidity | Pressure | Rain* | Wind** | Luminosity | Snow |
|---|---|---|---|---|---|---|---|
| 1778005779 | 16.11° C | 68% | 975.2 hPa | 0 mm | - | - | - |
| 1778005731 | 15.56° C | 68% | 975.3 hPa | 0.25 mm | - | - | - |
| 1778005480 | 15.56° C | 68% | 975.3 hPa | 0.25 mm | - | - | - |
| 1778005377 | 15.56° C | 68% | 975.4 hPa | 0.25 mm | - | - | - |
| 1778005179 | 15.56° C | 68% | 975.4 hPa | 0.25 mm | - | - | - |
| 1778005016 | 15° C | 72% | 975.4 hPa | 0.25 mm | - | - | - |
| 1778004879 | 15° C | 72% | 975.4 hPa | 0.25 mm | - | - | - |
| 1778004579 | 14.44° C | 73% | 975.4 hPa | 0.25 mm | - | - | - |
| 1778004499 | 13.89° C | 76% | 975.5 hPa | 0.25 mm | - | - | - |
| 1778004280 | 13.89° C | 76% | 975.5 hPa | 0.25 mm | - | - | - |
| 1778004178 | 13.89° C | 79% | 975.7 hPa | 0.25 mm | - | - | - |
| 1778003979 | 13.89° C | 79% | 975.7 hPa | 0.25 mm | - | - | - |
| 1778003379 | 12.78° C | 79% | 975.7 hPa | 0.25 mm | - | - | - |
| 1778003080 | 12.78° C | 82% | 975.7 hPa | 0.25 mm | - | - | - |
| 1778002779 | 12.78° C | 84% | 975.6 hPa | 0.25 mm | - | - | - |
| 1778002479 | 12.78° C | 85% | 975.6 hPa | 0.25 mm | - | - | - |
| 1778002179 | 12.78° C | 85% | 975.5 hPa | 0.25 mm | - | - | - |
| 1778001879 | 12.78° C | 84% | 975.7 hPa | 0 mm | - | - | - |
| 1778001779 | 12.78° C | 83% | 975.6 hPa | 0 mm | - | - | - |
| 1778001579 | 12.78° C | 83% | 975.6 hPa | 0 mm | - | - | - |
| 1778001279 | 12.78° C | 81% | 975.5 hPa | 0 mm | - | - | - |
| 1778001184 | 12.78° C | 79% | 975.6 hPa | 0 mm | - | - | - |
| 1778000979 | 12.78° C | 79% | 975.6 hPa | 0 mm | - | - | - |
| 1777999999 | 13.33° C | 80% | 975.4 hPa | 0.51 mm | - | - | - |
| 1777999779 | 13.33° C | 80% | 975.4 hPa | 0.51 mm | - | - | - |
* Rain latest hour (hover to see other rain measurements)
** Current wind speed in m/s (hover to see current wind gust speed)